This demonstration page uses our WeatherBlox Daily Observations layout. Learn more.

Hourly Observations for August 29, 2020

Temp ( °F °C ) Dew Point ( °F °C ) Humidity (%) Winds ( mph kmh ) Pressure ( in mb ) Visibility ( mi km ) Precip ( " mm )
12:15 am 00:15 Cloudy with Nearby Thunderstorms 64 18 64 18 100 100 S 7 11 29.84 1011 5 8.0467 0.09 2.286
12:35 am 00:35 Cloudy with Nearby Thunderstorms 64 18 64 18 100 100 S 5 7 29.84 1011 7 11.26538 0.13 3.302
12:55 am 00:55 Mostly Cloudy 64 18 64 18 100 100 SSE 7 11 29.82 1010 7 11.26538 0.17 4.318
1:15 am 01:15 Cloudy with Nearby Thunderstorms 64 18 64 18 100 100 S 8 13 29.8 1009 10 16.0934 0 0
1:35 am 01:35 Mostly Cloudy 64 18 64 18 100 100 S 6 9 29.78 1009 10 16.0934 0.01 0.254
1:55 am 01:55 Cloudy 64 18 64 18 100 100 Calm 29.77 1008 10 16.0934 0.01 0.254
2:15 am 02:15 Mostly Cloudy 64 18 64 18 100 100 SSW 6 9 29.77 1008 10 16.0934 0 0
2:35 am 02:35 Cloudy 64 18 64 18 100 100 S 7 11 29.77 1008 10 16.0934 0 0
2:55 am 02:55 Cloudy 64 18 64 18 100 100 S 7 11 29.76 1008 10 16.0934 0 0
3:15 am 03:15 Cloudy 63 17 63 17 100 100 SW 5 7 29.76 1008 10 16.0934 0 0
3:35 am 03:35 Cloudy 64 18 64 18 100 100 Calm 29.74 1007 10 16.0934 0 0
3:55 am 03:55 Cloudy 63 17 63 17 100 100 Calm 29.75 1007 10 16.0934 0 0
4:15 am 04:15 Cloudy 63 17 63 17 100 100 Calm 29.74 1007 10 16.0934 0 0
4:35 am 04:35 Cloudy 63 17 63 17 100 100 Calm 29.74 1007 10 16.0934 0 0
4:55 am 04:55 Cloudy 63 17 63 17 100 100 Calm 29.74 1007 10 16.0934 0 0
5:15 am 05:15 Cloudy 64 18 64 18 100 100 Calm 29.72 1007 10 16.0934 0 0
5:35 am 05:35 Cloudy 63 17 63 17 100 100 S 5 7 29.73 1007 10 16.0934 0 0
5:55 am 05:55 Cloudy 63 17 63 17 100 100 S 7 11 29.72 1006 10 16.0934 0 0
6:15 am 06:15 Cloudy 63 17 63 17 100 100 S 6 9 29.72 1006 10 16.0934 0 0
6:35 am 06:35 Cloudy 63 17 63 17 100 100 S 6 9 29.72 1006 10 16.0934 0 0
6:55 am 06:55 Cloudy 63 17 63 17 100 100 SSW 5 7 29.72 1006 5 8.0467 0 0
7:15 am 07:15 Cloudy 63 17 63 17 100 100 Calm 29.72 1006 4 6.43736 0 0
7:35 am 07:35 Cloudy 63 17 63 17 100 100 SW 3 6 29.72 1006 5 8.0467 0 0
7:55 am 07:55 Cloudy 63 17 63 17 100 100 Calm 29.72 1006 7 11.26538 0 0
8:15 am 08:15 Cloudy 64 18 64 18 100 100 Calm 29.71 1006 10 16.0934 0 0
8:35 am 08:35 Cloudy 64 18 64 18 100 100 Calm 29.7 1006 10 16.0934 0 0
8:55 am 08:55 Cloudy 64 18 64 18 100 100 Calm 29.69 1006 10 16.0934 0 0
9:15 am 09:15 Cloudy 64 18 64 18 100 100 S 5 7 29.68 1005 10 16.0934 0 0
9:35 am 09:35 Cloudy 64 18 64 18 100 100 S 5 7 29.68 1005 10 16.0934 0 0
9:55 am 09:55 Cloudy 64 18 64 18 100 100 S 3 6 29.67 1005 7 11.26538 0 0
10:15 am 10:15 Cloudy 64 18 64 18 100 100 Calm 29.66 1005 10 16.0934 0 0
10:55 am 10:55 Cloudy 64 18 64 18 100 100 SSW 6 9 29.66 1005 2.5 4.02335 0 0
11:15 am 11:15 Cloudy 68 20 68 20 100 100 SSW 6 9 29.65 1004 10 16.0934 0 0
11:35 am 11:35 Cloudy 68 20 68 20 100 100 SW 3 6 29.64 1004 10 16.0934 0 0
11:55 am 11:55 Cloudy 68 20 68 20 100 100 SSW 6 9 29.63 1003 10 16.0934 0 0
12:15 pm 12:15 Cloudy 68 20 68 20 100 100 SSW 6 9 29.62 1003 10 16.0934 0 0
12:35 pm 12:35 Cloudy 70 21 70 21 100 100 SW 7 11 29.62 1003 10 16.0934 0 0
12:55 pm 12:55 Cloudy 70 21 68 20 94 94 WSW 10 17 29.62 1003 10 16.0934 0 0
1:15 pm 13:15 Cloudy 72 22 70 21 94 94 WSW 9 15 29.61 1003 10 16.0934 0 0
1:35 pm 13:35 Cloudy 72 22 68 20 88 88 WSW 15 24 29.61 1003 10 16.0934 0 0
1:55 pm 13:55 Cloudy 72 22 68 20 88 88 WSW 7 11 29.61 1003 10 16.0934 0 0
2:15 pm 14:15 Mostly Cloudy 70 21 68 20 94 94 WSW 8 13 29.59 1002 10 16.0934 0 0
2:35 pm 14:35 Sunny 72 22 70 21 94 94 W 10 17 29.58 1002 10 16.0934 0 0
2:55 pm 14:55 Partly Cloudy 73 23 70 21 89 89 WSW 5 7 29.56 1001 10 16.0934 0 0
3:15 pm 15:15 Partly Cloudy 77 25 70 21 79 79 NW 3 6 29.55 1001 10 16.0934 0 0
3:35 pm 15:35 Partly Cloudy 77 25 70 21 79 79 W 5 7 29.55 1001 10 16.0934 0 0
3:55 pm 15:55 Partly Cloudy 79 26 70 21 74 74 W 7 11 29.54 1000 10 16.0934 0 0
4:15 pm 16:15 Partly Cloudy 79 26 70 21 74 74 WNW 7 11 29.54 1000 10 16.0934 0 0
4:35 pm 16:35 Partly Cloudy 79 26 72 22 79 79 W 5 7 29.55 1001 10 16.0934 0 0
4:55 pm 16:55 Partly Cloudy 81 27 72 22 74 74 WSW 6 9 29.54 1000 10 16.0934 0 0
5:15 pm 17:15 Mostly Cloudy 81 27 72 22 74 74 WSW 5 7 29.54 1000 10 16.0934 0 0
5:35 pm 17:35 Cloudy 81 27 72 22 74 74 W 7 11 29.55 1001 10 16.0934 0 0
5:55 pm 17:55 Mostly Cloudy 79 26 72 22 79 79 W 5 7 29.56 1001 10 16.0934 0 0
6:15 pm 18:15 Partly Cloudy 79 26 72 22 79 79 WNW 7 11 29.57 1001 10 16.0934 0 0
6:35 pm 18:35 Sunny 81 27 68 20 66 66 W 10 17 29.56 1001 10 16.0934 0 0
6:55 pm 18:55 Sunny 81 27 72 22 74 74 WSW 5 7 29.57 1001 10 16.0934 0 0
7:15 pm 19:15 Sunny 79 26 72 22 79 79 Calm 29.57 1001 10 16.0934 0 0
7:35 pm 19:35 Sunny 79 26 70 21 74 74 SW 5 7 29.58 1002 10 16.0934 0 0
7:55 pm 19:55 Clear 77 25 70 21 79 79 SSW 6 9 29.59 1002 10 16.0934 0 0
8:15 pm 20:15 Clear 75 24 68 20 78 78 SSW 6 9 29.61 1003 10 16.0934 0 0
8:35 pm 20:35 Clear 77 25 68 20 74 74 Calm 29.61 1003 10 16.0934 0 0
8:55 pm 20:55 Clear 77 25 66 19 69 69 W 3 6 29.61 1003 10 16.0934 0 0
9:15 pm 21:15 Clear 73 23 68 20 83 83 Calm 29.64 1004 10 16.0934 0 0
9:35 pm 21:35 Clear 73 23 64 18 74 74 NW 7 11 29.65 1004 10 16.0934 0 0
9:55 pm 21:55 Clear 73 23 64 18 74 74 WNW 5 7 29.66 1004 10 16.0934 0 0
10:15 pm 22:15 Clear 73 23 64 18 74 74 NW 10 17 29.66 1004 10 16.0934 0 0
10:35 pm 22:35 Clear 73 23 64 18 74 74 NNW 7 11 29.68 1005 10 16.0934 0 0
10:55 pm 22:55 Clear 73 23 63 17 69 69 NNW 10 17 29.69 1005 10 16.0934 0 0
11:15 pm 23:15 Clear 73 23 63 17 69 69 NNW 12 19 29.69 1005 10 16.0934 0 0
11:35 pm 23:35 Clear 73 23 61 16 65 65 N 6 9 29.71 1006 10 16.0934 0 0
11:55 pm 23:55 Clear 73 23 61 16 65 65 N 12 19 29.71 1006 10 16.0934 0 0

Powered by AerisWeather